Date String (YYYY-MM-DD hh:mm:ss) UTC,Instrument flags,absolute air pressure of the measurement (hPa),sample flow rate (lpm),inlet stack bypass flow (lpm),air temperature of the measurement (°C),ambient temperature measured by the external sensor (°C),aerosol sample conditioner tube jacket temperature (°C),OPC LED temperature (°C),internal box temperature (°C),relative humidity of the measurement (%),span deviation,mass concentration of particles derived from Lorenz-Mie calculation of OPC scattering (μg/m³),mass concentration of particles derived from Lorenz-Mie calculation of OPC scattering (μg/m³),mass concentration of particles derived from Lorenz-Mie calculation of OPC scattering (μg/m³)
DateTimeUTC,F1_M11,P_M11,Q1_M11,Q2_M11,T1_M11,T2_M11,T3_M11,T4_M11,T5_M11,U1_M11,ZSPAN_M11,X2_M11,X0_M11,X1_M11
2024-03-22 10:00:00,SystemResetWarning,0830.1,5.00,000.00,021.1,020.1,000.0,029.9,023.0,19.9,0000.0,0004.11,0013.86,0002.93
2024-03-22 10:01:00,SystemResetWarning,0830.1,5.00,000.00,021.1,020.1,000.0,029.9,023.0,19.9,0000.0,0004.14,0013.96,0002.92
2024-03-22 10:02:00,SystemResetWarning,0830.1,5.00,000.00,021.1,020.1,000.0,029.9,022.9,19.8,0000.0,0004.14,0014.13,0002.91
2024-03-22 10:03:00,SystemResetWarning,0830.1,5.00,000.00,021.1,020.1,000.0,029.8,022.9,19.8,0000.0,0004.14,0014.47,0002.91
2024-03-22 10:04:00,SystemResetWarning,0830.1,5.00,000.00,021.1,020.1,000.0,029.8,022.9,19.8,0000.0,0004.15,0014.04,0002.91
2024-03-22 10:05:00,SystemResetWarning,0830.0,5.00,000.00,021.1,020.1,000.0,029.8,022.9,19.8,0000.0,0004.16,0013.70,0002.91
2024-03-22 10:06:00,SystemResetWarning,0830.1,5.00,000.00,021.0,020.1,000.0,029.8,022.9,19.8,0000.0,0004.12,0014.44,0002.91
2024-03-22 10:07:00,SystemResetWarning,0830.1,5.00,000.00,021.0,020.0,000.0,029.8,022.9,19.8,0000.0,0004.08,0014.25,0002.89
2024-03-22 10:08:00,SystemResetWarning,0830.1,5.00,000.00,021.0,020.0,000.0,029.8,022.9,19.7,0000.0,0004.03,0014.49,0002.87
2024-03-22 10:09:00,SystemResetWarning,0830.1,5.00,000.00,021.0,020.0,000.0,029.8,022.8,19.7,0000.0,0004.05,0014.07,0002.87
2024-03-22 10:10:00,SystemResetWarning,0830.1,5.00,000.00,021.0,020.0,000.0,029.7,022.8,19.8,0000.0,0004.05,0013.52,0002.86
2024-03-22 10:11:00,SystemResetWarning,0830.0,5.01,000.00,021.0,020.0,000.0,029.7,022.8,19.7,0000.0,0004.03,0014.00,0002.85
2024-03-22 10:12:00,SystemResetWarning,0830.0,5.01,000.00,021.0,020.0,000.0,029.7,022.8,19.6,0000.0,0004.01,0013.56,0002.83
2024-03-22 10:13:00,SystemResetWarning,0830.0,4.99,000.00,021.0,020.0,000.0,029.7,022.8,19.6,0000.0,0004.02,0013.34,0002.82
2024-03-22 10:14:00,SystemResetWarning,0830.0,4.99,000.00,021.0,020.0,000.0,029.7,022.8,19.6,0000.0,0004.02,0013.40,0002.80
2024-03-22 10:15:00,SystemResetWarning,0830.0,4.99,000.00,021.0,020.0,000.0,029.7,022.8,19.6,0000.0,0003.94,0013.65,0002.76
2024-03-22 10:16:00,SystemResetWarning,0830.0,5.01,000.00,021.0,020.0,000.0,029.7,022.8,19.6,0000.0,0003.90,0013.69,0002.73
2024-03-22 10:17:00,SystemResetWarning,0830.1,5.00,000.00,021.0,020.0,000.0,029.7,022.8,19.6,0000.0,0003.83,0012.36,0002.70
2024-03-22 10:18:00,SystemResetWarning,0830.0,5.00,000.00,021.0,020.0,000.0,029.7,022.8,19.6,0000.0,0003.85,0012.24,0002.68
2024-03-22 10:19:00,SystemResetWarning,0830.0,5.00,000.00,021.0,020.0,000.0,029.7,022.8,19.7,0000.0,0003.92,0012.65,0002.68
2024-03-22 10:20:00,SystemResetWarning,0830.0,5.00,000.00,021.0,020.0,000.0,029.7,022.8,19.6,0000.0,0003.90,0012.26,0002.68
2024-03-22 10:21:00,SystemResetWarning,0830.0,4.99,000.00,021.0,020.1,000.0,029.6,022.8,19.7,0000.0,0003.93,0012.05,0002.66
2024-03-22 10:22:00,SystemResetWarning,0830.1,4.99,000.00,021.0,020.1,000.0,029.6,022.8,19.7,0000.0,0003.97,0011.97,0002.67
2024-03-22 10:23:00,SystemResetWarning,0830.1,5.00,000.00,021.0,020.1,000.0,029.6,022.9,19.7,0000.0,0003.98,0012.69,0002.67
2024-03-22 10:24:00,SystemResetWarning,0830.1,5.01,000.00,021.0,020.1,000.0,029.6,022.8,19.7,0000.0,0003.96,0013.06,0002.67
2024-03-22 10:25:00,SystemResetWarning,0830.1,5.01,000.00,021.0,020.1,000.0,029.6,022.9,19.6,0000.0,0003.93,0012.68,0002.67
2024-03-22 10:26:00,SystemResetWarning,0830.2,4.99,000.00,021.0,020.1,000.0,029.6,022.8,19.6,0000.0,0003.92,0011.96,0002.68
2024-03-22 10:27:00,SystemResetWarning,0830.2,4.99,000.00,021.0,020.1,000.0,029.6,022.8,19.7,0000.0,0003.93,0012.00,0002.69
2024-03-22 10:28:00,SystemResetWarning,0830.2,4.99,000.00,021.0,020.2,000.0,029.6,022.9,19.7,0000.0,0003.97,0012.01,0002.69
2024-03-22 10:29:00,SystemResetWarning,0830.1,5.00,000.00,021.0,020.2,000.0,029.6,022.9,19.6,0000.0,0003.97,0012.11,0002.70
2024-03-22 10:30:00,SystemResetWarning,0830.1,5.00,000.00,021.0,020.2,000.0,029.6,022.9,19.6,0000.0,0003.89,0011.41,0002.69
2024-03-22 10:31:00,SystemResetWarning,0830.1,5.01,000.00,021.0,020.2,000.0,029.6,022.8,19.5,0000.0,0003.87,0011.43,0002.67
2024-03-22 10:32:00,SystemResetWarning,0830.1,5.01,000.00,021.0,020.1,000.0,029.6,022.8,19.5,0000.0,0003.84,0011.65,0002.67
2024-03-22 10:33:00,SystemResetWarning,0830.1,5.00,000.00,021.0,020.1,000.0,029.6,022.8,19.5,0000.0,0003.83,0012.78,0002.67
2024-03-22 10:34:00,SystemResetWarning,0830.1,4.99,000.00,021.0,020.1,000.0,029.6,022.8,19.5,0000.0,0003.87,0012.70,0002.66
2024-03-22 10:35:00,SystemResetWarning,0830.2,4.99,000.00,020.9,020.1,000.0,029.6,022.8,19.5,0000.0,0003.90,0012.97,0002.66
2024-03-22 10:36:00,SystemResetWarning,0830.2,4.99,000.00,020.9,020.0,000.0,029.6,022.8,19.5,0000.0,0003.94,0013.87,0002.66
2024-03-22 10:37:00,SystemResetWarning,0830.2,5.00,000.00,020.9,020.0,000.0,029.6,022.8,19.5,0000.0,0003.97,0014.03,0002.65
2024-03-22 10:38:00,SystemResetWarning,0830.2,5.00,000.00,020.9,020.0,000.0,029.6,022.8,19.5,0000.0,0003.98,0013.87,0002.64
2024-03-22 10:39:00,SystemResetWarning,0830.2,5.00,000.00,020.9,020.0,000.0,029.6,022.8,19.6,0000.0,0004.01,0014.27,0002.66
2024-03-22 10:40:00,SystemResetWarning,0830.3,5.01,000.00,020.9,020.0,000.0,029.6,022.8,19.7,0000.0,0004.03,0014.24,0002.69
2024-03-22 10:41:00,SystemResetWarning,0830.3,5.01,000.00,020.9,020.0,000.0,029.6,022.7,19.7,0000.0,0004.07,0015.44,0002.71
2024-03-22 10:42:00,SystemResetWarning,0830.2,5.00,000.00,020.9,019.9,000.0,029.6,022.7,19.7,0000.0,0004.11,0015.73,0002.73
2024-03-22 10:43:00,SystemResetWarning,0830.2,4.99,000.00,020.9,019.9,000.0,029.6,022.7,19.8,0000.0,0004.12,0015.56,0002.75
2024-03-22 10:44:00,SystemResetWarning,0830.2,5.00,000.00,020.9,019.9,000.0,029.5,022.7,19.8,0000.0,0004.12,0015.37,0002.77
2024-03-22 10:45:00,SystemResetWarning,0830.2,5.00,000.00,020.8,019.9,000.0,029.5,022.7,19.9,0000.0,0004.08,0015.01,0002.80
2024-03-22 10:46:00,SystemResetWarning,0830.2,5.00,000.00,020.8,019.9,000.0,029.5,022.6,19.9,0000.0,0004.08,0014.80,0002.83
2024-03-22 10:47:00,SystemResetWarning,0830.2,5.00,000.00,020.8,019.8,000.0,029.5,022.6,19.9,0000.0,0004.08,0015.68,0002.89
2024-03-22 10:48:00,SystemResetWarning,0830.2,5.00,000.00,020.8,019.9,000.0,029.5,022.6,20.0,0000.0,0004.12,0016.49,0002.94
2024-03-22 10:49:00,SystemResetWarning,0830.1,5.00,000.00,020.8,019.9,000.0,029.5,022.6,20.0,0000.0,0004.14,0017.36,0002.97
2024-03-22 10:50:00,SystemResetWarning,0830.1,5.00,000.00,020.8,019.8,000.0,029.5,022.6,20.0,0000.0,0004.16,0017.91,0002.99
2024-03-22 10:51:00,SystemResetWarning,0830.1,5.00,000.00,020.8,019.8,000.0,029.5,022.6,20.0,0000.0,0004.14,0018.95,0003.00
2024-03-22 10:52:00,SystemResetWarning,0830.2,5.00,000.00,020.8,019.8,000.0,029.5,022.6,20.0,0000.0,0004.18,0019.41,0003.01
2024-03-22 10:53:00,SystemResetWarning,0830.2,5.00,000.00,020.7,019.7,000.0,029.5,022.5,20.0,0000.0,0004.17,0019.80,0003.02
2024-03-22 10:54:00,SystemResetWarning,0830.2,5.00,000.00,020.7,019.7,000.0,029.4,022.5,20.0,0000.0,0004.19,0021.17,0003.03
2024-03-22 10:55:00,SystemResetWarning,0830.3,5.00,000.00,020.7,019.6,000.0,029.4,022.5,20.0,0000.0,0004.19,0021.00,0003.02
2024-03-22 10:56:00,SystemResetWarning,0830.2,5.00,000.00,020.7,019.6,000.0,029.4,022.5,20.0,0000.0,0004.19,0021.25,0003.02
2024-03-22 10:57:00,SystemResetWarning,0830.2,5.00,000.00,020.7,019.6,000.0,029.4,022.5,20.0,0000.0,0004.17,0020.88,0003.01
2024-03-22 10:58:00,SystemResetWarning,0830.2,5.00,000.00,020.6,019.6,000.0,029.4,022.5,20.0,0000.0,0004.17,0019.88,0002.98
2024-03-22 10:59:00,SystemResetWarning,0830.3,5.00,000.00,020.6,019.6,000.0,029.4,022.5,20.0,0000.0,0004.16,0018.90,0002.94
